Погода в Тиличиках

Россия / Камчатский край     60°25′41″N   166°03′20″E
темп.,
°C
ветер,
м/с
пор.,
м/с
влажн.,
%
обл.,
%
осадки,
мм/ч
давл.,
гПа
погр.,
м
28 ноября, вс
вс2800:00−17с5798100 3.6 1007172
03:000вюв131990100 5.9 10061054
06:00−1вюв11178293 6.3 1007976
09:00−3в81683100 0.1 1008683
12:00−5св4888100 0.1 1009183
15:00−6ссв3593100 0.1 100898
18:00−4в71687100 0.4 1009665
21:00−8ссв4591100 0.0 101086
29 ноября, пн
пн2900:00−9ссв4591100 0.1 101080
03:00−8ссв4693100 0.5 1010109
06:00−7св3896100 1.7 1010307
09:00−5вюв41292100 1.1 1010485
12:00−2юв101580100 1.5 1010801
15:00−2юв91582100 0.1 1010669
18:00−2юв91585100 0.2 1010676
21:00−2юв101590100 0.6 1009870
30 ноября, вт
вт3000:00−2юв101695100 1.9 1008963
03:00−2юв111797100 3.4 10061046
06:00−1ююв111796100 6.8 10051076
09:00−2ю51298100 7.3 1004866
12:00−3зюз2498100 14.6 1001359
15:00−6зюз3695100 2.1 1002299
18:00−8зюз2296100 2.6 100355
21:00−12зсз2196100 0.0 100414
1 декабря, ср
ср100:00−16сз2299100 0.0 100512
03:00−15сз2296100 0.0 100518
06:00−15сз229696 0.0 100731
09:00−15зсз1293100 0.0 100836
12:00−17з22955 0.0 101035
15:00−19з22955 0.0 101261
18:00−21зсз2310034 0.0 101440
21:00−21з239835 0.0 101748
2 декабря, чт
чт200:00−22зсз1210034 0.0 102040
03:00−24с2210070 0.0 102228
06:00−20ссв34100100 0.0 102258
09:00−20с4699100 0.0 1021102
12:00−17ссв5897100 0.4 1018160
15:00−14ссв6996100 1.3 1011217
18:00−9св61296100 8.3 1004351
21:00−1вюв91998100 15.0 995732